{"data":{"norad_id":46173,"intl_designator":"2020-057BJ","name":"STARLINK-1640","alt_names":[],"object_type":"PAYLOAD","status":"ACTIVE","operator":null,"country":"US","launch_date":"2020-08-18","launch_site_code":"AFETR","launch_vehicle":null,"mission":null,"orbit_class":"UNKNOWN","rcs_meters":null,"size_class":null,"mass_kg":null,"dimensions":null,"purposes":["comms"],"wikipedia_slug":null,"has_3d_model":false,"image_url":null,"decayed_at":null,"tle_current":{"epoch":"2026-09-02T02:29:53.901312Z","epoch_age_seconds":1611458,"freshness":"OLD","line1":"1 46173U 20057BJ  26245.10409608  .11314874  12431-4  42184-3 0  9998","line2":"2 46173  53.0142 139.9303 0006994 252.4327 107.5956 16.43724425334112","mean_motion":16.43724425,"eccentricity":0.0006994,"inclination_deg":53.0142,"raan_deg":139.9303,"arg_perigee_deg":252.4327,"mean_anomaly_deg":107.5956,"bstar":0.00042184,"rev_number":33411,"period_min":87.605925792579,"perigee_km":151.34381870292,"apogee_km":160.48364886934,"semimajor_km":6534.0507337861,"source":"CELESTRAK","updated_at":"2026-09-02T09:00:54.435449Z"}}}